Regional Weather Roundup
Issued by NWS

Home | Current Version | Previous Version | Text Only | Print | Product List | Glossary Off
Versions: 1 2 3 4 5 6 7 8 9 10 11 12 13 14 15 16 17 18 19 20 21 22 23 24 25 26 27

000
ASUS45 KTFX 020810
RWRMT
MONTANA REGIONAL WEATHER ROUNDUP
NATIONAL WEATHER SERVICE GREAT FALLS MT
100 AM MST FRI DEC 02 2016

NOTE: "FAIR" INDICATES FEW OR NO CLOUDS BELOW 12000 FEET WITH NO
SIGNIFICANT WEATHER AND/OR OBSTRUCTIONS TO VISIBILITY.

MTZ001>007-043-020900-
WEST OF THE DIVIDE

CITY           SKY/WX    TMP DP  RH WIND       PRES   REMARKS
KALISPELL      FOG       31  30  96 CALM      30.19F VSB 1/2
MISSOULA       MIX PCPN  30  29  96 CALM      30.25R
BUTTE          CLOUDY    22  18  85 N3        30.14R
MULLAN PASS    CLOUDY    21  19  92 CALM      30.14S FOG
ANACONDA         N/A     25  21  86 CALM      30.16R
DEER LODGE       N/A     25  25 100 CALM      30.19R
EUREKA           N/A     30  28  93 CALM      30.20F
HAMILTON         N/A     30  23  74 CALM      30.23R
LIBBY            N/A     30  28  93 CALM      30.21S
RONAN            N/A     32  28  85 CALM      30.23R
$$

MTZ008-052>055-020900-
SOUTHWEST MONTANA

CITY           SKY/WX    TMP DP  RH WIND       PRES   REMARKS
BOZEMAN        MOCLDY    27  24  89 CALM      30.14R
DILLON         CLOUDY    24  18  77 CALM      30.13R
W YELLOWSTONE  CLOUDY    16  14  93 CALM      30.10R
ENNIS          CLOUDY    25  23  93 CALM      30.16R
THREE FORKS      N/A     27  27 100 CALM      30.12R
TWIN BRIDGES     N/A     28  20  72 E3        30.11R
$$

MTZ009-010-012-014-046-048-049-054-020900-
EAST SLOPES AND CENTRAL MONTANA

CITY           SKY/WX    TMP DP  RH WIND       PRES   REMARKS
CUT BANK       CLEAR     20  19  96 W9        30.10R WCI   9
GREAT FALLS    LGT SNOW  29  29 100 SW6       30.13R FOG     WCI  23
HELENA         CLOUDY    32  22  66 NW7       30.14R WCI  26
AUGUSTA        FOG       21  21 100 W1        30.09R VSB 1/4
BOWMANS CRNR   SNOW      25  25 100 S9        30.09R VSB 3/8 WCI  15
CHOTEAU          N/A     25  25 100 S6        30.12S WCI  18
FAIRFIELD      MOCLDY    26  24  92 N2        30.11R
POWER          FLURRIES  28  28  98 SW7       30.11R WCI  21
RAYNESFORD     LGT SNOW  30  28  92 SW8       30.11R WCI  22
ULM            LGT SNOW  29  29 100 W5        30.13R
$$

MTZ011-013-016-021-045-047-050-051-020900-
NORTH CENTRAL MONTANA

CITY           SKY/WX    TMP DP  RH WIND       PRES   REMARKS
HAVRE          CLOUDY    26  24  92 SW6       30.11S WCI  19
LEWISTOWN      CLOUDY    29  27  92 W8        30.08R WCI  21
N BAR RANCH    MOCLDY    25  23  93 NW3       30.07R
CHINOOK          N/A     21  19  93 W3        30.13R
DENTON         FLURRIES  28  26  92 NW12G22   30.08R WCI  18
GEYSER         FLURRIES  29  27  92 W15       30.09R WCI  18
GRASS RANGE    MOCLDY    30  28  91 W14       30.04R WCI  20
JUDITH GAP     FLURRIES  24  23  96 NW5       30.07R
ROY            FLURRIES  31  29  94 MISG      30.06R
STANFORD       FLURRIES  28  26  91 NW13      30.08R WCI  18
WINIFRED       FLURRIES  29  29 100 MISG      30.08R
$$

MTZ017>020-022>027-061-062-020900-
NORTHEAST MONTANA

CITY           SKY/WX    TMP DP  RH WIND       PRES   REMARKS
GLASGOW        CLOUDY    26  24  92 SW6       30.09R WCI  19
JORDAN           N/A     28  25  88 W6        30.08R WCI  22
SIDNEY         CLOUDY    19  18  95 CALM      30.11R
WOLF POINT     CLOUDY    26  22  84 CALM      30.10R
PLENTYWOOD       N/A     25  23  93 E3        30.08S
$$

MTZ028>42-056>058-020900-
SOUTHCENTRAL AND SOUTHEAST MONTANA

CITY           SKY/WX    TMP DP  RH WIND       PRES   REMARKS
BAKER          CLOUDY    22  19  89 CALM      30.06R
BILLINGS       MOCLDY    29  21  72 W7        30.09S WCI  22
LIVINGSTON     CLOUDY    30  21  69 W13       30.10R WCI  20
MILES CITY     CLEAR     16  11  80 NW5       30.08R
BIG TIMBER     CLOUDY    28  23  80 W21G30    30.10S WCI  15
FORSYTH          N/A     27  21  80 SW6       30.10R WCI  20
HARLOWTON      MOCLDY    23  19  85 N6        30.08R WCI  16
LAUREL           N/A     29  12  49 W2        30.07R
ROUNDUP          N/A     26  20  78 S6        30.00R WCI  19
$$

REGIONAL REPORTS...DAKOTAS

CITY           SKY/WX    TMP DP  RH WIND       PRES   REMARKS
WILLISTON      CLOUDY    28  23  81 SE6       30.11R WCI  22
MINOT          CLOUDY    28  22  78 CALM      30.14R
DICKINSON      CLOUDY    24  21  88 S5        30.07R
BEACH          CLOUDY    21  21 100 SE3       30.10R
CROSBY         CLOUDY    27  27 100 S6        30.14R WCI  20
TIOGA          CLOUDY    25  25 100 SE6       30.12R WCI  18
WATFORD CITY   CLOUDY    27  25  93 E7        30.11R WCI  19
BISMARCK       CLOUDY    26  24  92 NE5       30.15R
GRAND FORKS    CLOUDY    29  22  75 N15       30.15R WCI  18
FARGO          CLOUDY    29  23  78 N13       30.14R WCI  19
BUFFALO SD       N/A     23  21  92 E5        29.99R
RAPID CITY     CLOUDY    23  18  81 CALM      30.06S
$$

REGIONAL REPORTS...WYOMING/IDAHO/WASHINGTON

CITY           SKY/WX    TMP DP  RH WIND       PRES   REMARKS
GILLETTE       CLEAR     27  24  89 W12       30.04R WCI  17
SHERIDAN       CLEAR     25  20  81 NW7       30.07R WCI  17
BUFFALO WY     CLOUDY    30  18  60 W7        30.05R WCI  23
CODY           CLOUDY    22  16  78 CALM      30.09R
YELLOWSTONE LA   N/A      6   4  91 CALM      30.06S
IDAHO FALLS    MOCLDY    17  14  88 S5        30.17S
SALMON         CLOUDY    27  25  93 CALM      30.22R
BOISE          CLEAR     26  24  92 CALM      30.27R
SPOKANE        FOG       29  28  96 S5        30.27R VSB 1/16
$$

REGIONAL REPORTS...ALBERTA

CITY           SKY/WX    TMP DP  RH WIND       PRES   REMARKS
EDMONTON         N/A     25  23  93 W6        30.04F VSB 1/8 WCI  18
CALGARY        CLEAR     23  21  93 SW2       30.04F
LETHBRIDGE     MOCLDY    23  23 100 SW13      30.09S WCI  11
MEDICINE HAT   CLOUDY    19  18  93 CALM      30.10S FOG
WATERTON GATE    N/A     30  19  64 SW12G18     N/A  WCI  21
CARDSTON         N/A     18  18 100 SW7         N/A  WCI   8
MILK RIVER       N/A     27  25  93 W9          N/A  WCI  17
ONEFOUR          N/A     27  25  93 NW6         N/A  WCI  20
$$

REGIONAL REPORTS...SASKATCHEWAN

CITY           SKY/WX    TMP DP  RH WIND       PRES   REMARKS
SWIFT CURRENT  CLOUDY    23  21  93 W9        30.04R WCI  13
REGINA         CLOUDY    27  25  93 SE7       30.08R WCI  19
SASKATOON      CLOUDY    28  23  80 VRB2      30.10R
CYPRESS HILLS    N/A     19  16  86 W2          N/A
VAL MARIE        N/A     25  21  86 NW5         N/A
ASSINIBOIA       N/A     25  25 100 S3          N/A
$$




USA.gov is the U.S. government's official web portal to all federal, state and local government web resources and services.